Wind_Speed
5 5 5 6 6 6 6 6 6 7 7 7 7 7 6 6 6 5 4 5 5 5 5 5 5 5 4 4 4 4 4 4 4 4 4 4 4 4 3 3 3 3 2
5 5 5 6 6 5 5 6 7 6 6 6 7 7 6 6 6 5 5 4 5 4 4 4 5 4 4 3 4 4 4 4 4 5 4 4 3 4 4 4 4 4 4
5 4 5 5 5 6 6 7 7 7 6 6 6 6 6 6 5 5 4 4 4 4 4 4 3 4 4 3 3 3 3 4 4 5 5 4 4 4 4 4 4 5 5
4 4 4 4 5 5 5 6 7 6 6 5 5 6 6 5 5 4 4 3 4 4 3 4 3 3 3 3 3 3 3 4 5 5 5 5 4 4 4 5 5 5 5
5 4 4 4 5 5 5 6 6 6 5 5 5 5 5 4 4 4 3 3 4 4 4 4 3 3 3 4 4 4 3 4 5 5 6 5 5 5 5 5 5 6 6
5 4 4 5 6 5 5 5 4 4 5 5 5 4 4 3 3 3 3 3 3 4 4 4 4 4 4 5 5 5 5 5 5 6 6 6 5 5 6 6 6 6 6
5 5 5 5 5 5 5 4 4 3 4 4 4 4 3 3 3 3 3 3 4 4 4 4 4 4 4 5 6 6 6 6 6 7 7 6 6 6 7 7 7 7 7
5 4 4 4 4 4 4 5 4 4 4 4 4 3 3 3 3 4 3 3 4 4 5 5 5 4 5 5 5 6 7 7 6 7 7 7 7 7 7 7 7 7 7
4 4 4 4 4 4 4 3 3 4 3 3 3 3 3 3 3 4 4 4 4 4 5 5 5 5 5 6 6 6 7 8 7 7 7 8 8 8 8 8 7 7 8
3 3 3 3 3 3 3 3 3 3 3 2 2 3 4 4 4 4 4 4 4 5 5 5 5 5 5 5 6 6 7 8 8 8 8 9 9 8 8 8 8 8 8
3 2 2 1 1 2 2 2 3 2 2 2 1 2 3 4 4 4 4 5 5 5 6 6 7 7 6 6 6 6 7 8 9 9 9 9 9 9 8 9 9 9 9
2 2 1 1 0 1 1 2 2 2 2 2 2 2 2 3 4 4 4 5 6 6 6 6 6 7 7 7 7 7 8 9 9 10 10 10 10 9 10 10 9 10 10
3 3 2 0 1 2 2 2 3 2 2 3 2 2 2 3 4 4 5 5 6 6 5 6 6 7 7 7 8 8 8 8 9 10 10 10 10 10 11 11 11 11 11
4 3 3 0 1 2 1 1 2 3 3 3 2 2 2 3 4 5 5 6 6 6 6 6 7 7 8 8 8 8 9 9 10 11 11 11 11 11 12 12 12 12 12
4 3 2 1 1 1 1 1 1 2 2 3 3 3 3 3 4 4 5 6 7 7 7 7 8 8 8 8 9 10 9 9 9 10 11 11 11 11 12 12 12 12 13
4 3 3 2 2 2 2 2 1 2 3 4 4 4 4 4 5 6 6 6 6 7 7 7 7 8 8 9 9 9 9 10 10 10 11 11 11 11 12 12 12 12 13
4 3 3 3 3 3 3 2 3 4 4 4 5 5 5 6 6 6 6 6 6 7 7 7 7 7 9 9 9 9 9 10 11 11 10 10 11 11 11 11 11 12 13
3 4 3 3 3 4 4 4 4 4 5 5 5 6 6 7 7 7 7 7 7 7 7 7 7 7 8 9 9 8 9 9 10 10 10 11 11 11 11 11 11 12 12
3 4 4 4 5 5 5 5 4 5 6 6 6 7 7 8 8 9 9 8 9 9 8 8 8 9 9 10 10 10 10 10 10 10 11 11 11 11 11 11 11 12 12
4 4 5 5 6 6 6 6 5 5 5 6 6 7 8 8 9 9 9 9 9 9 9 9 9 10 10 10 10 11 11 11 11 11 11 11 11 11 11 11 11 11 11
5 5 6 6 6 7 7 7 6 6 6 7 7 7 7 8 9 9 9 9 9 9 10 10 10 11 11 11 11 12 12 11 11 11 11 11 11 11 11 11 11 11 11
6 6 6 7 7 8 8 8 7 7 8 8 7 7 8 9 9 9 9 9 9 10 10 11 11 12 12 12 11 11 11 11 11 11 12 13 12 12 12 12 12 12 12
7 7 7 8 8 9 9 9 9 9 10 9 9 9 10 10 10 10 10 10 10 10 11 11 11 11 11 11 11 12 11 11 11 12 12 12 13 13 13 13 13 13 14
9 9 9 9 10 10 11 11 10 10 10 10 10 11 11 11 11 11 11 11 11 11 11 12 11 12 12 12 12 12 13 13 13 13 13 13 14 14 14 14 15 15 15
11 11 12 12 11 11 11 11 11 10 11 11 11 12 12 13 13 12 12 12 12 12 12 12 12 12 12 13 13 13 14 14 14 14 15 15 15 15 16 16 16 16 16
12 13 13 13 12 11 11 12 12 12 12 13 12 13 13 13 14 14 13 13 13 13 12 13 13 13 14 14 14 14 14 14 14 15 15 16 16 17 17 17 18 17 17
Wind_Direction
100 109 120 121 123 125 133 139 138 141 141 136 137 149 155 158 163 167 165 163 159 158 165 175 182 188 189 196 200 205 210 205 194 196 199 203 214 220 223 226 234 238 241
100 107 121 123 119 119 128 136 139 138 138 134 136 143 146 149 152 153 157 158 163 161 162 182 176 187 186 189 198 208 215 212 206 202 206 209 222 233 238 241 243 244 243
98 106 114 119 126 126 124 130 139 140 137 135 139 146 146 150 151 156 163 169 174 173 171 179 178 186 185 190 200 208 213 212 215 217 216 216 227 240 246 245 253 246 246
100 101 104 116 128 134 132 138 145 142 144 141 142 149 151 153 158 165 171 176 176 180 185 188 195 185 184 194 201 207 218 224 230 232 231 231 241 251 255 255 251 243 247
99 103 107 116 129 129 131 136 145 149 149 143 141 145 151 157 159 164 178 182 176 191 204 211 212 205 206 209 208 213 222 230 232 233 235 237 243 251 251 254 244 238 242
95 105 113 118 125 129 131 133 138 150 155 150 145 148 153 159 162 167 181 192 192 196 211 220 219 214 217 227 227 229 231 238 236 234 233 239 246 249 254 256 245 240 246
86 90 101 119 125 130 131 135 132 143 150 156 160 165 172 173 178 188 185 206 209 208 214 224 220 225 231 236 243 238 236 240 238 234 231 239 246 248 252 259 252 242 248
87 89 102 121 128 131 132 139 140 142 145 160 176 178 179 190 194 200 206 221 222 223 226 232 231 236 240 243 249 245 243 242 244 241 241 247 252 251 254 261 256 247 249
88 96 106 126 134 137 137 143 154 150 153 164 178 188 199 201 211 214 219 226 227 230 240 247 248 250 247 248 253 255 251 245 242 241 242 247 252 254 256 257 251 247 250
73 94 118 134 147 151 147 145 160 154 162 171 183 204 215 219 222 222 224 230 236 237 244 248 248 251 255 253 251 255 255 247 242 241 242 244 249 251 254 253 254 252 258
64 85 108 143 167 173 177 180 179 175 184 194 202 210 215 219 218 227 232 237 245 247 249 253 252 256 260 261 257 255 255 249 249 247 248 251 253 252 254 251 256 257 261
57 74 77 75 144 205 217 208 205 211 216 228 230 215 208 216 228 243 247 249 254 257 255 256 259 259 259 259 256 256 258 255 256 251 253 260 260 258 257 257 257 260 263
44 44 28 357 216 224 235 230 229 229 233 240 239 228 231 238 240 248 254 258 260 261 259 260 260 256 257 258 257 259 262 262 260 253 259 264 264 262 260 260 262 263 262
34 32 21 40 221 234 239 252 247 248 249 245 242 241 254 264 259 257 258 259 259 260 260 259 257 258 263 262 260 263 264 262 263 257 261 264 264 263 263 263 265 266 266
36 33 21 357 317 268 261 265 277 264 251 242 246 261 274 275 269 268 268 261 260 263 263 263 261 262 266 268 265 261 262 262 262 262 262 265 261 261 263 267 267 267 269
32 27 18 2 338 310 308 285 294 293 277 273 271 271 277 280 278 274 273 271 265 265 266 264 271 268 267 271 273 266 263 265 259 262 263 263 261 261 261 266 267 266 266
15 15 17 10 355 331 323 309 299 299 291 286 281 279 278 280 281 280 278 275 273 271 267 269 269 271 267 272 275 268 266 265 262 265 265 263 263 265 263 265 269 266 264
2 1 2 356 343 335 331 318 295 284 286 290 285 282 281 279 280 281 285 287 281 277 274 270 268 272 271 270 271 270 267 264 263 268 268 268 267 268 269 268 271 269 267
342 343 347 334 328 325 323 318 308 292 287 289 285 285 287 284 282 285 288 290 286 282 278 272 269 269 270 269 269 269 269 268 264 263 263 265 266 267 268 269 270 273 272
320 326 330 327 324 320 322 314 305 302 302 300 293 288 286 288 286 288 288 289 287 281 277 274 271 273 273 271 272 269 270 269 267 263 259 259 261 264 266 267 269 274 272
306 312 318 318 319 316 319 319 304 300 299 302 300 294 292 292 290 290 291 290 288 282 280 277 276 277 277 277 276 273 271 271 274 270 266 265 264 266 267 267 267 269 269
300 302 306 308 309 309 311 313 304 296 293 293 293 293 295 295 292 290 291 290 290 286 281 281 280 278 278 278 278 278 275 272 274 275 271 268 266 265 265 266 266 268 270
297 296 298 299 300 303 307 306 302 298 295 293 287 286 290 294 293 287 285 284 286 286 283 283 282 279 283 282 281 282 279 276 273 274 273 272 266 264 262 264 266 267 268
297 295 296 298 301 301 302 304 300 298 298 295 288 287 289 293 292 284 285 284 284 285 285 285 284 283 283 282 282 283 282 281 275 273 271 270 268 264 262 262 264 265 266
297 297 298 298 299 299 301 302 302 297 297 299 297 294 292 292 290 284 283 284 284 285 284 284 284 284 285 284 283 284 286 282 274 272 271 269 267 264 262 261 262 264 265
296 297 298 296 297 296 296 297 299 297 296 295 295 294 295 294 291 286 280 281 282 282 281 282 283 284 286 286 287 288 288 285 279 275 271 270 268 266 264 264 263 263 264
Height
5886 5886 5885 5885 5886 5886 5886 5886 5887 5887 5887 5887 5888 5888 5889 5889 5889 5890 5890 5890 5890 5890 5890 5890 5890 5891 5891 5892 5892 5893 5893 5892 5892 5892 5893 5894 5895 5895 5896 5896 5896 5896 5897
5887 5886 5886 5886 5886 5886 5886 5886 5887 5887 5887 5888 5888 5888 5889 5889 5889 5889 5890 5890 5890 5890 5890 5890 5890 5891 5891 5892 5892 5892 5892 5892 5892 5893 5893 5894 5894 5895 5895 5895 5896 5896 5896
5888 5887 5887 5887 5886 5887 5887 5887 5887 5887 5888 5888 5888 5888 5889 5889 5889 5889 5889 5890 5890 5890 5890 5891 5891 5891 5891 5891 5891 5892 5892 5892 5892 5892 5893 5893 5894 5894 5894 5895 5895 5895 5896
5888 5888 5888 5887 5887 5887 5887 5887 5887 5887 5888 5888 5889 5889 5889 5889 5889 5889 5889 5889 5890 5890 5890 5890 5891 5890 5891 5891 5891 5891 5891 5892 5892 5892 5892 5893 5893 5894 5894 5894 5894 5895 5895
5889 5888 5888 5888 5888 5888 5888 5888 5887 5888 5888 5889 5889 5889 5889 5889 5889 5889 5889 5889 5889 5890 5890 5890 5890 5890 5890 5890 5891 5891 5891 5891 5892 5892 5892 5892 5892 5893 5892 5893 5893 5894 5894
5889 5888 5888 5888 5888 5888 5888 5888 5888 5888 5888 5888 5889 5889 5889 5889 5889 5889 5889 5889 5889 5889 5889 5889 5890 5890 5890 5890 5890 5890 5890 5891 5891 5891 5891 5891 5892 5892 5892 5892 5892 5893 5893
5889 5889 5889 5889 5889 5889 5888 5888 5888 5888 5888 5889 5889 5889 5888 5888 5888 5888 5888 5889 5889 5889 5889 5889 5889 5889 5889 5889 5889 5889 5890 5890 5890 5890 5890 5890 5891 5891 5891 5891 5891 5892 5892
5890 5889 5889 5889 5889 5889 5889 5889 5889 5888 5889 5889 5889 5889 5888 5888 5888 5888 5888 5888 5888 5888 5888 5888 5887 5888 5888 5888 5888 5888 5889 5889 5889 5889 5889 5889 5889 5890 5890 5890 5890 5891 5891
5890 5890 5889 5889 5889 5889 5889 5889 5889 5888 5888 5888 5888 5888 5888 5888 5887 5888 5888 5887 5887 5887 5887 5887 5887 5887 5887 5887 5887 5887 5887 5888 5888 5887 5887 5888 5888 5888 5888 5888 5889 5889 5889
5891 5890 5889 5889 5889 5889 5889 5889 5888 5888 5888 5888 5888 5888 5887 5887 5887 5887 5887 5887 5886 5886 5886 5886 5886 5886 5886 5886 5886 5886 5886 5886 5886 5886 5886 5886 5886 5886 5887 5887 5887 5887 5887
5891 5890 5890 5889 5889 5889 5889 5888 5888 5888 5888 5888 5887 5886 5886 5886 5887 5886 5886 5886 5886 5886 5885 5885 5885 5885 5885 5885 5885 5885 5885 5885 5885 5884 5885 5885 5884 5885 5885 5885 5885 5885 5886
5891 5890 5890 5889 5889 5889 5889 5888 5888 5888 5888 5887 5887 5886 5886 5886 5886 5886 5885 5885 5885 5884 5884 5884 5884 5884 5883 5883 5883 5883 5883 5883 5883 5883 5883 5883 5883 5883 5883 5883 5883 5883 5883
5891 5890 5890 5889 5889 5889 5888 5888 5888 5887 5887 5887 5886 5886 5886 5885 5885 5885 5885 5884 5884 5883 5883 5883 5882 5882 5882 5882 5882 5881 5881 5881 5881 5881 5881 5881 5881 5881 5881 5881 5881 5881 5881
5892 5891 5890 5889 5889 5889 5888 5888 5887 5887 5886 5886 5886 5885 5885 5885 5884 5884 5883 5883 5883 5882 5882 5881 5881 5881 5881 5881 5880 5880 5880 5879 5879 5879 5879 5879 5879 5879 5879 5879 5879 5879 5879
5892 5891 5890 5890 5889 5889 5888 5888 5887 5886 5886 5885 5885 5885 5884 5884 5883 5883 5882 5882 5881 5881 5880 5880 5880 5879 5879 5879 5878 5878 5878 5877 5877 5877 5877 5876 5876 5876 5877 5876 5876 5876 5876
5893 5892 5891 5890 5889 5889 5888 5887 5887 5886 5885 5885 5884 5884 5883 5883 5882 5882 5881 5880 5880 5879 5879 5879 5878 5878 5877 5877 5877 5876 5876 5875 5875 5875 5874 5874 5874 5874 5874 5874 5874 5874 5874
5893 5892 5891 5890 5889 5888 5888 5887 5886 5885 5885 5884 5883 5883 5882 5882 5881 5880 5880 5879 5878 5878 5878 5877 5876 5876 5875 5875 5875 5874 5874 5873 5873 5873 5872 5872 5872 5872 5872 5872 5872 5872 5872
5893 5892 5891 5890 5889 5888 5887 5886 5885 5884 5884 5883 5882 5882 5881 5880 5880 5879 5878 5878 5877 5876 5876 5875 5875 5874 5874 5873 5873 5872 5872 5871 5871 5871 5870 5870 5870 5869 5869 5869 5869 5869 5869
5893 5892 5891 5890 5889 5888 5887 5885 5884 5883 5883 5882 5881 5880 5879 5879 5878 5877 5877 5876 5875 5875 5874 5873 5873 5872 5872 5871 5871 5870 5870 5869 5869 5869 5868 5868 5868 5867 5867 5867 5867 5867 5866
5893 5892 5891 5889 5888 5887 5886 5884 5883 5882 5881 5880 5880 5879 5878 5877 5876 5875 5875 5874 5873 5872 5872 5871 5871 5870 5870 5869 5869 5868 5868 5867 5866 5866 5866 5866 5865 5865 5865 5864 5864 5864 5864
5892 5891 5890 5889 5887 5886 5885 5883 5882 5881 5880 5879 5878 5877 5876 5875 5874 5873 5872 5871 5870 5870 5869 5869 5868 5868 5868 5867 5866 5866 5865 5864 5864 5863 5863 5863 5863 5863 5862 5862 5862 5862 5861
5891 5890 5889 5887 5886 5885 5883 5882 5881 5879 5878 5877 5876 5875 5874 5873 5872 5870 5870 5869 5868 5867 5867 5866 5866 5865 5865 5864 5864 5863 5863 5863 5861 5861 5860 5860 5860 5860 5860 5859 5859 5859 5858
5890 5889 5887 5886 5885 5883 5882 5880 5879 5878 5876 5875 5874 5873 5872 5870 5869 5868 5867 5866 5866 5865 5864 5864 5863 5863 5862 5862 5861 5861 5860 5860 5859 5858 5857 5857 5856 5856 5856 5856 5856 5856 5856
5888 5887 5885 5884 5883 5881 5880 5878 5877 5875 5874 5872 5871 5870 5869 5868 5867 5866 5865 5864 5863 5862 5861 5861 5860 5860 5860 5859 5858 5858 5857 5856 5856 5855 5854 5853 5853 5853 5853 5853 5853 5853 5853
5886 5885 5883 5882 5880 5879 5877 5876 5874 5873 5872 5870 5868 5867 5866 5865 5864 5863 5862 5861 5860 5860 5859 5858 5857 5857 5856 5856 5855 5854 5854 5852 5852 5851 5851 5851 5850 5850 5849 5849 5849 5849 5849
5884 5882 5880 5879 5878 5876 5875 5873 5872 5871 5869 5868 5866 5864 5863 5862 5861 5859 5859 5858 5857 5857 5856 5855 5854 5854 5853 5852 5852 5851 5850 5849 5848 5847 5847 5846 5846 5846 5845 5845 5845 5845 5845